Henderson, NV

7:15 PM PST on December 15, 2017 (GMT -0800)
Henderson

Weather History for KHND - October, 2011

Change the Weather History Date:

Saturday, October 8, 2011

  Actual Average (KLAS) Record (KLAS)
Temperature  
Mean Temperature 60 °F -  
Max Temperature 72 °F 84 °F 98 °F (1964)
Min Temperature 47 °F 57 °F 41 °F (1941)
Degree Days  
Heating Degree Days 6    
Growing Degree Days 10 (Base 50)    
Moisture  
Dew Point 36 °F    
Average Humidity 43    
Maximum Humidity 69    
Minimum Humidity 23    
Precipitation  
Precipitation 0.00 in - - ()
Sea Level Pressure  
Sea Level Pressure 29.99 in    
Wind  
Wind Speed 6 mph (ESE)    
Max Wind Speed 13 mph    
Max Gust Speed -    
Visibility 10 miles    
Events      
Averages and records for this station are not official NWS values.
T = Trace of Precipitation, MM = Missing Value Source: NWS Daily Summary

Daily Weather History Graph

Daily Weather History Graph

Search for Another Location

Airport or City:

Trip Planner

Search our weather history database for the weather conditions in past years. The results will help you decide how hot, cold, wet, or windy it might be!

Date:

Astronomy

Oct. 08, 2011 Rise Set
Actual Time 6:41 AM PDT 6:14 PM PDT
Civil Twilight 6:15 AM PDT 6:40 PM PDT
Nautical Twilight 5:45 AM PDT 7:09 PM PDT
Astronomical Twilight 5:16 AM PDT 7:39 PM PDT
Moon 4:22 PM PDT (10/8) 3:37 AM PDT (10/8)
Length of Visible Light 12h 24m
Length of Day
11h 33m
Waxing Gibbous, 90% of the Moon is Illuminated
Oct 8
Waxing Gibbous
Oct 11
Full
Oct 19
Last Quarter
Oct 26
New
Nov 2
First Quarter

Hourly Weather History & Observations

Time (PDT) Temp. Dew Point Humidity Pressure Visibility Wind Dir Wind Speed Gust Speed Precip Events Conditions
12:56 AM 52.0 °F 34.9 °F 52% 29.97 in 10.0 mi SSE 8.1 mph - N/A   Clear
1:56 AM 52.0 °F 36.0 °F 54% 29.98 in 10.0 mi SSE 6.9 mph - N/A   Clear
2:56 AM 50.9 °F 36.0 °F 57% 29.98 in 10.0 mi SSE 6.9 mph - N/A   Clear
3:56 AM 50.0 °F 36.9 °F 61% 29.98 in 10.0 mi SSE 6.9 mph - N/A   Clear
4:56 AM 48.9 °F 36.0 °F 61% 30.00 in 10.0 mi SSW 6.9 mph - N/A   Clear
5:56 AM 48.9 °F 36.9 °F 63% 30.01 in 10.0 mi South 8.1 mph - N/A   Clear
6:56 AM 47.8 °F 37.9 °F 69% 30.03 in 10.0 mi SSE 8.1 mph - N/A   Clear
8:56 AM 59.9 °F 36.9 °F 42% 30.05 in 10.0 mi Calm Calm - N/A   Clear
10:56 AM 64.9 °F 36.0 °F 34% 30.03 in 10.0 mi NE 8.1 mph - N/A   Clear
11:56 AM 68.0 °F 36.0 °F 31% 30.02 in 10.0 mi NE 9.2 mph - N/A   Clear
1:56 PM 70.9 °F 34.0 °F 26% 29.96 in 10.0 mi Variable 5.8 mph - N/A   Clear
2:56 PM 72.0 °F 32.9 °F 24% 29.95 in 10.0 mi NNE 12.7 mph - N/A   Clear
3:56 PM 72.0 °F 32.0 °F 23% 29.95 in 10.0 mi NE 9.2 mph - N/A   Clear
5:56 PM 68.9 °F 32.9 °F 26% 29.96 in 10.0 mi East 8.1 mph - N/A   Clear
6:56 PM 65.8 °F 34.0 °F 31% 29.98 in 10.0 mi East 3.5 mph - N/A   Clear
7:56 PM 63.0 °F 36.0 °F 37% 29.99 in 10.0 mi Calm Calm - N/A   Clear
8:56 PM 61.0 °F 37.9 °F 42% 30.01 in 10.0 mi Calm Calm - N/A   Clear
9:56 PM 59.9 °F 36.9 °F 42% 30.02 in 10.0 mi Calm Calm - N/A   Clear
10:56 PM 59.9 °F 34.9 °F 39% 30.02 in 10.0 mi Calm Calm - N/A   Clear
11:56 PM 56.8 °F 36.9 °F 47% 30.01 in 10.0 mi Calm Calm - N/A   Clear